Location: Unspecified
(44.4377°N, 88.0525°W)
Time: 11:40:53
(UTC-06:00)

Okean 3 - Visible Passes

Search period start: 03 December 2016 00:00
Search period end: 13 December 2016 00:00
Orbit: 578 x 603 km, 82.5° (Epoch: 02 December)

Date Brightness Start Highest point End Pass type
(mag) Time Alt. Az. Time Alt. Az. Time Alt. Az.
03 Dec 3.5 16:58:07 10° S 17:02:25 86° E 17:06:43 10° N visible
04 Dec 4.0 17:06:33 10° SSW 17:10:48 63° W 17:15:03 10° N visible
05 Dec 4.8 17:15:10 10° SSW 17:19:14 41° WNW 17:23:18 10° N visible
06 Dec 5.5 17:23:58 10° SW 17:27:41 28° WNW 17:31:25 10° NNW visible
07 Dec 6.1 17:33:02 10° WSW 17:36:12 20° WNW 17:39:22 10° NNW visible
08 Dec 6.3 17:42:28 10° W 17:44:45 14° WNW 17:47:00 10° NW visible
